Hurlburt Field, FL

4:12 PM CDT on May 28, 2017 (GMT -0500)
Hurlburt

Weather History for KHRT - February, 2013

Change the Weather History Date:

Tuesday, February 5, 2013

  Actual Average Record
Temperature  
Mean Temperature 60 °F -  
Max Temperature 64 °F 60 °F 73 °F (2012)
Min Temperature 55 °F 42 °F 20 °F (2009)
Degree Days  
Heating Degree Days 6    
Growing Degree Days 10 (Base 50)    
Moisture  
Dew Point 60 °F    
Average Humidity 99    
Maximum Humidity 100    
Minimum Humidity 84    
Precipitation  
Precipitation 0.37 in - - ()
Sea Level Pressure  
Sea Level Pressure 30.00 in    
Wind  
Wind Speed 6 mph (ENE)    
Max Wind Speed 9 mph    
Max Gust Speed -    
Visibility 10 miles    
Events Rain    
Averages and records for this station are not official NWS values.
T = Trace of Precipitation, MM = Missing Value Source: NWS Daily Summary

Daily Weather History Graph

Daily Weather History Graph

Search for Another Location

Airport or City:

Trip Planner

Search our weather history database for the weather conditions in past years. The results will help you decide how hot, cold, wet, or windy it might be!

Date:

Astronomy

Feb. 05, 2013 Rise Set
Actual Time 6:34 AM CST 5:27 PM CST
Civil Twilight 6:09 AM CST 5:52 PM CST
Nautical Twilight 5:41 AM CST 6:20 PM CST
Astronomical Twilight 5:13 AM CST 6:48 PM CST
Moon 2:08 AM CST (2/5) 12:51 PM CST (2/5)
Length of Visible Light 11h 42m
Length of Day
10h 52m
Waning Crescent, 26% of the Moon is Illuminated
Feb 5
Waning Crescent
Feb 10
New
Feb 17
First Quarter
Feb 25
Full
Mar 4
Last Quarter

Hourly Weather History & Observations

Time (CST) Temp. Dew Point Humidity Pressure Visibility Wind Dir Wind Speed Gust Speed Precip Events Conditions
12:55 AM 62.6 °F 59.0 °F 88% 29.98 in 10.0 mi SSW 6.9 mph - N/A   Light Drizzle
12:58 AM 63.0 °F 58.1 °F 84% 29.99 in 10.0 mi SSW 8.1 mph - 0.00 in   Light Drizzle
1:58 AM 61.0 °F 59.0 °F 93% 29.99 in 10.0 mi North 5.8 mph - 0.00 in Rain Light Rain
2:58 AM 56.8 °F 56.8 °F 100% 30.00 in 10.0 mi NNE 4.6 mph - 0.04 in Rain Light Rain
3:58 AM 55.9 °F 55.9 °F 100% 30.00 in 10.0 mi North 3.5 mph - 0.01 in Rain Light Rain
4:28 AM 55.4 °F 55.4 °F 100% 29.99 in 8.0 mi North 5.8 mph - N/A Rain Rain
4:48 AM 55.4 °F 55.4 °F 100% 29.99 in 10.0 mi NNE 4.6 mph - N/A Rain Light Rain
4:58 AM 55.2 °F 55.2 °F 100% 30.00 in 10.0 mi NE 3.5 mph - 0.09 in Rain Light Rain
5:58 AM 55.2 °F 55.2 °F 100% 30.03 in 10.0 mi NNW 2.3 mph - 0.04 in Rain Light Rain
6:58 AM 55.2 °F 55.2 °F 100% 30.03 in 6.0 mi East 5.8 mph - 0.10 in Rain Light Rain
7:37 AM 55.4 °F 55.4 °F 100% 30.02 in 10.0 mi ESE 5.8 mph - N/A   Overcast
7:58 AM 56.5 °F 56.5 °F 100% 30.03 in 10.0 mi ESE 3.5 mph - 0.04 in   Overcast
8:02 AM 57.2 °F 57.2 °F 100% 30.02 in 10.0 mi ESE 5.8 mph - N/A Rain Light Rain
8:25 AM 57.2 °F 57.2 °F 100% 30.03 in 10.0 mi ENE 5.8 mph - N/A   Overcast
8:58 AM 57.9 °F 57.9 °F 100% 30.04 in 10.0 mi East 4.6 mph - 0.00 in   Overcast
9:58 AM 59.5 °F 59.5 °F 100% 30.04 in 10.0 mi ENE 8.1 mph - N/A   Overcast
10:34 AM 60.8 °F 60.8 °F 100% 30.02 in 10.0 mi ESE 6.9 mph - N/A   Light Drizzle
10:58 AM 62.8 °F 62.8 °F 100% 30.03 in 10.0 mi East 8.1 mph - 0.00 in Rain Light Rain
10:59 AM 62.6 °F 62.6 °F 100% 30.02 in 10.0 mi East 8.1 mph - N/A   Overcast
11:58 AM 63.9 °F 63.9 °F 100% 30.02 in 10.0 mi ESE 9.2 mph - 0.00 in   Overcast
12:29 PM 64.4 °F 64.4 °F 100% 30.00 in 10.0 mi ESE 9.2 mph - N/A Rain Light Rain
12:58 PM 63.3 °F 63.3 °F 100% 30.00 in 10.0 mi East 5.8 mph - 0.00 in Rain Light Rain
1:27 PM 62.6 °F 62.6 °F 100% 29.98 in 8.0 mi East 6.9 mph - N/A Rain Light Rain
1:43 PM 62.6 °F 62.6 °F 100% 29.98 in 10.0 mi East 2.3 mph - N/A Rain Light Rain
1:50 PM 62.6 °F 62.6 °F 100% 29.98 in 6.0 mi NE 3.5 mph - N/A Rain Light Rain
1:58 PM 61.9 °F 61.9 °F 100% 29.99 in 7.0 mi NNE 3.5 mph - 0.02 in Rain Light Rain
2:43 PM 60.8 °F 60.8 °F 100% 29.97 in 10.0 mi NNE 6.9 mph - N/A   Light Drizzle
2:58 PM 61.7 °F 61.7 °F 100% 29.98 in 10.0 mi East 8.1 mph - 0.03 in   Light Drizzle
2:59 PM 62.6 °F 62.6 °F 100% 29.97 in 10.0 mi East 6.9 mph - N/A   Overcast
3:34 PM 62.6 °F 62.6 °F 100% 29.96 in 10.0 mi East 6.9 mph - N/A   Mostly Cloudy
3:35 PM 62.6 °F 62.6 °F 100% 29.96 in 10.0 mi ENE 6.9 mph - N/A   Light Drizzle
3:40 PM 62.6 °F 62.6 °F 100% 29.96 in 10.0 mi ENE 9.2 mph - N/A   Light Drizzle
3:44 PM 62.6 °F 62.6 °F 100% 29.96 in 10.0 mi East 6.9 mph - N/A   Overcast
3:49 PM 62.6 °F 62.6 °F 100% 29.96 in 10.0 mi ENE 9.2 mph - N/A   Overcast
3:58 PM 63.0 °F 63.0 °F 100% 29.97 in 10.0 mi ENE 8.1 mph - 0.00 in   Overcast
4:13 PM 62.6 °F 62.6 °F 100% 29.95 in 10.0 mi East 8.1 mph - N/A   Mostly Cloudy
4:28 PM 62.6 °F 62.6 °F 100% 29.96 in 10.0 mi ENE 9.2 mph - N/A   Mostly Cloudy
4:58 PM 62.6 °F 62.6 °F 100% 29.98 in 10.0 mi Variable 5.8 mph - N/A   Overcast
5:33 PM 62.6 °F 62.6 °F 100% 29.97 in 10.0 mi ENE 8.1 mph - N/A   Overcast
5:58 PM 61.5 °F 61.5 °F 100% 29.98 in 10.0 mi ENE 9.2 mph - N/A   Overcast
6:08 PM 60.8 °F 60.8 °F 100% 29.97 in 10.0 mi ENE 9.2 mph - N/A   Overcast
6:18 PM 60.8 °F 60.8 °F 100% 29.98 in 10.0 mi ENE 9.2 mph - N/A   Overcast
6:58 PM 60.1 °F 60.1 °F 100% 30.00 in 10.0 mi NE 9.2 mph - N/A   Overcast
7:08 PM 59.0 °F 59.0 °F 100% 29.99 in 10.0 mi ENE 8.1 mph - N/A   Overcast
7:23 PM 59.0 °F 59.0 °F 100% 29.99 in 10.0 mi East 8.1 mph - N/A   Overcast
7:43 PM 59.0 °F 59.0 °F 100% 30.00 in 10.0 mi East 5.8 mph - N/A   Overcast
7:58 PM 59.4 °F 59.4 °F 100% 30.01 in 10.0 mi NNE 4.6 mph - N/A   Overcast
8:58 PM 59.0 °F 59.0 °F 100% 30.02 in 10.0 mi ENE 5.8 mph - N/A   Overcast
9:38 PM 59.0 °F 59.0 °F 100% 30.02 in 10.0 mi NE 5.8 mph - N/A   Overcast
9:58 PM 59.0 °F 59.0 °F 100% 30.03 in 10.0 mi NE 3.5 mph - N/A   Overcast
10:14 PM 59.0 °F 59.0 °F 100% 30.02 in 10.0 mi ENE 4.6 mph - N/A Rain Light Rain
10:23 PM 59.0 °F 59.0 °F 100% 30.02 in 10.0 mi ENE 3.5 mph - N/A   Overcast
10:58 PM 58.8 °F 58.8 °F 100% 30.03 in 10.0 mi NE 3.5 mph - 0.00 in   Overcast
11:48 PM 59.0 °F 59.0 °F 100% 30.03 in 10.0 mi NE 3.5 mph - N/A   Overcast
11:58 PM 58.6 °F 58.6 °F 100% 30.04 in 10.0 mi NNE 4.6 mph - N/A   Overcast